TIME,DELAY(SENSOR),PRES,OXYGEN,RAWTEMP,T(OPTODE),TCPHASE,FLUOR,BETA(BETA700),BETA(BETA412),BETA(BETA440),CDOM,C(CSC),ED(ED411.90),ED(ED443.80),ED(ED489.40),ED(ED554.70),LU(LU412.20),LU(LU443.80),LU(LU489.40),LU(LU555.00),COMP,TILTX,TILTY,CHECK
1343773967,5804,830.9500122070312000,172.6452026367187500,391.3113098144531000,10.8673896789550780,37.8953018188476560,52,101,98,80,80,14149,2146951250,2147512640,2147282998,2147501915,2147091657,2146933238,2147699099,2147120530,3348,-2,8,58424
1343777563,5804,953.9299926757812000,181.6515960693359400,476.0422058105469000,8.2709035873413090,38.6719894409179700,53,102,100,80,81,14136,2146958500,2147515245,2147292150,2147517440,2147089481,2146921618,2147714459,2147119917,1169,-2,8,13267
1343781163,5804,979.1799926757812000,191.0415039062500000,488.3364868164062500,7.8908958435058590,38.2623596191406250,53,103,100,79,82,14132,2146960859,2147514998,2147296978,2147519012,2147091611,2146921718,2147713874,2147118253,3338,-2,8,8747
1343784763,5806,983.0000000000000000,190.8639068603515600,489.6917114257812500,7.8489480018615720,38.2962608337402340,52,105,99,79,82,14130,2146957065,2147515840,2147295094,2147520237,2147092004,2146923858,2147719323,2147118171,567,-2,8,62087
1343788363,5806,986.9699707031250000,192.7720947265625000,491.9861145019531000,7.7779049873352050,38.2135391235351560,52,105,100,79,82,14125,2146956864,2147513572,2147292068,2147520987,2147092873,2146920173,2147718390,2147118701,2405,-2,8,27690
1343791963,5805,995.9299926757812000,193.7364044189453000,492.4786071777344000,7.7626509666442870,38.1613502502441400,52,104,101,81,81,14127,2146958893,2147518838,2147292891,2147520676,2147090093,2146919954,2147715373,2147119085,3226,-2,8,56518
1343795563,5805,998.5599975585938000,193.6076049804687500,492.8240051269531000,7.7519521713256840,38.1757888793945300,52,104,100,80,81,14122,2146956214,2147514514,2147294454,2147521764,2147093476,2146922294,2147717540,2147117723,3155,-2,8,60639
1343799163,5804,999.6099853515625000,194.0108032226562500,492.8456115722656000,7.7512822151184080,38.1503105163574200,52,106,100,80,81,14126,2146957101,2147514496,2147295524,2147521499,2147089673,2146921060,2147718628,2147117284,3011,-2,8,49245
1343802763,5807,994.4299926757812000,193.4777069091797000,494.3959960937500000,7.7032489776611330,38.2103004455566400,52,105,99,80,82,14106,2146959488,2147516544,2147294701,2147518985,2147091291,2146927021,2147714340,2147120950,607,-1,8,17537
1343806363,5805,991.8800048828125000,194.8049926757812500,495.6947021484375000,7.6629991531372070,38.1486091613769500,51,104,99,78,82,14110,2146956333,2147516434,2147295625,2147523419,2147089792,2146931035,2147714541,2147116745,3437,-2,8,32790
1343809963,5807,989.8699951171875000,195.0437927246093800,497.1863098144531000,7.6167597770690920,38.1594505310058600,52,103,98,79,82,14106,2146956891,2147519360,2147293686,2147522980,2147089645,2146917138,2147715602,2147113261,333,-2,8,47572
1343813563,5809,991.0200195312500000,195.1515045166015600,497.7688903808594000,7.5986948013305660,38.1635017395019500,52,103,101,78,81,14108,2146958966,2147517467,2147292361,2147518180,2147091437,2146919012,2147719122,2147120256,43,-2,8,34423
1343817163,5805,987.0300292968750000,195.1358032226562500,498.3825073242187500,7.5796670913696290,38.1748313903808600,53,102,101,79,80,14093,2146955382,2147517248,2147296850,2147520886,2147088512,2146919149,2147719012,2147118692,3223,-2,8,51213
1343820763,5805,992.3099975585938000,195.3441925048828000,498.7900085449219000,7.5670270919799805,38.1684799194335940,52,102,100,80,82,14094,2146956416,2147516553,2147295716,2147523200,2147087817,2146918409,2147723858,2147117430,3158,-2,8,54467
1343824363,5808,991.5100097656250000,197.4877929687500000,499.2352905273437500,7.5532169342041020,38.0416603088378900,53,107,100,80,82,14094,2146956900,2147513636,2147297371,2147520411,2147087232,2146920768,2147717924,2147119158,885,-1,8,30760
1343827963,5805,996.3900146484375000,195.6688995361328000,498.4342956542969000,7.5780577659606930,38.1414794921875000,52,104,100,79,81,14091,2146956470,2147515282,2147296978,2147523364,2147091126,2146921810,2147716086,2147113216,421,-1,8,19759
1343831563,5806,995.5900268554688000,194.9230957031250000,498.6271057128906000,7.5720820426940920,38.1929016113281250,52,103,101,78,82,14091,2146958390,2147513325,2147295588,2147521362,2147091638,2146923858,2147716562,2147118756,684,-2,8,31044
1343835163,5804,997.9600219726562000,194.5948028564453000,498.2127075195312500,7.5849299430847170,38.2057609558105500,52,104,105,81,80,14087,2146955995,2147513837,2147295497,2147521060,2147089334,2146926061,2147714806,2147116288,654,-2,8,35174
1343838763,5805,997.3300170898438000,196.1880035400390600,498.5600891113281000,7.5741581916809080,38.1117591857910160,52,103,99,79,81,14088,2146957814,2147516004,2147294738,2147521490,2147091136,2146919625,2147718052,2147119469,2824,-1,8,17543
1343842363,5804,999.6400146484375000,196.0617980957031200,498.0096130371094000,7.5912289619445800,38.1099815368652340,52,101,100,78,80,14077,2146958445,2147515108,2147295926,2147518893,2147091501,2146921124,2147717476,2147119113,2606,-2,8,37172
1343845963,5803,998.6300048828125000,196.9427032470703000,499.0469055175781000,7.5590581893920900,38.0721015930175800,53,103,101,79,81,14087,2146959725,2147515602,2147295094,2147521014,2147090989,2146923986,2147717229,2147116251,3562,-2,8,36900
1343849563,5804,998.6099853515625000,197.6600036621093800,498.9017028808594000,7.5635628700256350,38.0255393981933600,52,105,101,79,81,14087,2146958582,2147516800,2147298441,2147521088,2147090377,2146923492,2147715309,2147118372,3420,-2,8,64524
1343853163,5806,994.2600097656250000,198.3323059082031200,500.7055969238281000,7.5076031684875490,38.0141906738281250,53,101,98,80,81,14088,2146959972,2147517540,2147296987,2147525083,2147092205,2146922304,2147718884,2147118710,124,-1,8,64355
1343856763,5805,995.0599975585938000,198.0903930664062500,500.6888122558594000,7.5081210136413570,38.0290107727050800,53,103,101,78,81,14074,2146957394,2147516562,2147295104,2147523684,2147091437,2146926272,2147715620,2147117421,3567,-2,8,10352
1343860363,5807,997.8200073242188000,198.6233978271484400,499.5447998046875000,7.5436158180236820,37.9762306213378900,53,104,98,80,81,14074,2146961170,2147517293,2147296566,2147520557,2147094299,2146925238,2147719478,2147119524,963,-2,8,28086
1343863963,5806,996.7299804687500000,199.6134948730468800,500.8053894042969000,7.5045051574707030,37.9373397827148440,53,105,101,79,80,14072,2146959030,2147511926,2147299346,2147519149,2147090194,2146923547,2147719990,2147119926,172,-2,8,62345
1343867563,5803,999.0499877929688000,197.9544982910156200,500.4798889160156000,7.5146059989929200,38.0340805053710940,52,104,101,80,81,14070,2146957750,2147515108,2147296064,2147521700,2147088265,2146920886,2147718144,2147119625,3345,-2,8,11937
1343871163,5804,1000.4000244140625000,196.7631072998047000,499.7132873535156000,7.5383868217468260,38.0956306457519500,52,103,99,80,82,14061,2146960009,2147516306,2147294948,2147520192,2147092891,2146923163,2147716306,2147117851,3464,-2,8,5328
1343874763,5804,999.2000122070312000,196.5625000000000000,499.5643005371094000,7.5430088043212890,38.1056709289550800,53,104,100,80,82,14061,2146957750,2147515748,2147295341,2147521316,2147089993,2146922797,2147721225,2147117147,134,-2,8,55194
1343878363,5807,1002.7899780273438000,196.6356964111328000,499.4458007812500000,7.5466852188110350,38.0991401672363300,52,102,99,80,82,14054,2146959003,2147518939,2147295725,2147520996,2147091492,2146922825,2147716964,2147116909,222,-2,8,10656
1343881963,5806,1006.3200073242188000,196.1089019775390600,498.9643859863281000,7.5616178512573240,38.1230201721191400,52,103,100,79,82,14052,2146959478,2147514477,2147295195,2147522706,2147092406,2146927314,2147717613,2147117878,274,-1,8,38748
1343885563,5804,998.9799804687500000,196.2955017089843800,498.7780151367187500,7.5674018859863280,38.1082000732421900,54,106,99,79,81,14038,2146959058,2147512603,2147297481,2147522413,2147092077,2146926966,2147715154,2147118198,3273,-1,8,7791
1343889163,5806,1000.2199707031250000,196.9389038085937500,499.3771972656250000,7.5488147735595700,38.0784683227539060,52,101,99,80,81,14042,2146960996,2147515584,2147297417,2147520146,2147093705,2146922121,2147716809,2147117705,803,-1,8,53949
1343892763,5805,1002.7999877929688000,198.6228942871093800,499.4704895019531000,7.5459189414978030,37.9751510620117200,53,102,100,79,81,14044,2146958619,2147519707,2147295954,2147522038,2147090880,2146922203,2147714816,2147119780,2642,-2,8,24536
1343896363,5805,1001.9000244140625000,198.4147949218750000,499.5469970703125000,7.5435461997985840,37.9896888732910160,52,103,100,81,82,14034,2146957138,2147518299,2147293083,2147520201,2147092498,2146920932,2147717924,2147114861,2605,-2,8,1735
1343899963,5807,998.4000244140625000,198.6604003906250000,500.5472106933594000,7.5125160217285160,37.9913291931152340,52,105,99,80,82,14032,2146959140,2147514669,2147295780,2147522194,2147087040,2146920109,2147717558,2147119177,632,-1,8,7082
1343903563,5804,1001.0399780273438000,200.8558959960937500,501.5296936035156000,7.4820270538330080,37.8734397888183600,52,104,100,79,81,14030,2146957824,2147520530,2147298377,2147519213,2147089874,2146918674,2147718857,2147116635,2726,-2,8,23194
1343907163,5805,998.0499877929688000,201.7321014404297000,501.7366943359375000,7.4756031036376950,37.8229293823242200,52,102,99,80,81,14029,2146958262,2147517760,2147295222,2147522020,2147091008,2146917485,2147716361,2147116086,2939,-2,8,8685
1343910763,5806,1002.8900146484375000,201.8560943603515600,501.6326904296875000,7.4788317680358890,37.8138008117675800,52,106,100,79,81,14029,2146958692,2147515995,2147295643,2147521874,2147089709,2146926363,2147716873,2147118345,3435,-2,8,65406
1343914363,5805,999.2299804687500000,201.8955993652343800,501.8156127929687500,7.4731550216674805,37.8143806457519500,52,104,100,79,82,14014,2146959378,2147515922,2147295451,2147520612,2147094473,2146921773,2147714816,2147118765,3445,-1,8,30082
1343914555,5807,9.8000001907348630,201.9375000000000000,501.6979980468750000,7.4768061637878420,37.8096504211425800,52,104,99,78,81,14141,2146957696,2147518198,2147295954,2147520027,2147087981,2146921865,2147717549,2147115520,3272,-2,8,3470
